Location: Buchberg
(46.9333°N, 15.8500°E)
Time: 09:50:09
(UTC+00:00)

Cosmos 1975 - Pass Details

Date: 14 July 2020
Orbit: 542 x 561 km, 82.5° (Epoch: 07 August)

Event Time Altitude Azimuth Distance (km) Brightness Sun altitude
Exits shadow 02:09:59 - 176° (S) 2,393 5.7 -9.5°
Reaches altitude 10° 02:11:24 10° 174° (S) 1,809 5.1 -9.3°
Maximum altitude 02:15:18 57° 96° (E) 646 3.4 -8.9°
Drops below altitude 10° 02:19:14 10° 17° (NNE) 1,819 6.6 -8.4°
Sets 02:21:25 0° 13° (NNE) 2,716 7.4 -8.1°
